Location: Kuffner-Sternwarte
(48.2130°N, 16.2960°E)
Time: 05:16:01
(UTC+02:00)

Envisat - Pass Details

Date: 28 September 2024
Orbit: 762 x 764 km, 98.3° (Epoch: 04 October)

Event Time Altitude Azimuth Distance (km) Brightness Sun altitude
Rises 02:55:15 0° 27° (NNE) 3,236 7.2 -36.2°
Reaches altitude 10° 02:58:12 10° 44° (NE) 2,305 6.2 -35.8°
Maximum altitude 03:01:50 20° 90° (E) 1,733 5.2 -35.4°
Enters shadow 03:02:07 19° 95° (E) 1,737 5.1 -35.4°
